Find Starlink 3176

NORAD ID: 51106 Int'l Des: 2022-005 Owner: SPXS Country: US Constellation: starlink operational
LEOCIRCULAR

リアルタイム位置

3D地球を読み込み中...

Starlink 3176について

説明を読み込み中...

次回通過

Passes for default location (London). Set your location on the main map for personalized predictions.

高度履歴

Loading altitude history...

軌道要素

1 51106U 22005C 26126.98295666 -.00002869 00000-0 -16230-3 0 9992
2 51106 53.2182 27.4295 0001214 89.5027 270.6104 15.08821002237676
Epoch: May 6, 2026 • Age: 7 hours

現在のステータス

高度 542.7 km
速度 7.60 km/s
衛星直下点 39.82°N, 106.66°E
打ち上げ日 Jan 19, 2022
運用期間 4.2 years
タイプ internet

技術仕様

分類 Payload
質量 297.00 kg
乾燥質量 275.00 kg
総質量 297.00 kg
長さ 0.20 m
直径 2.80 m
スパン 9.00 m
形状 Box + pan
製造者 SPXS
バスタイプ Starlink
フェーズステータス In Orbit
所有者/国 SPXS/US

Most Searched